Location: Unspecified
(0.0000°N, 0.0000°E)
Time: 18:00:02
(UTC+00:00)

STARLINK 1062 - Pass Details

Date: 15 January 2020
Orbit: 548 x 551 km, 53.0° (Epoch: 17 January)

Event Time Altitude Azimuth Distance (km) Brightness Sun altitude
Rises 19:15:32 0° 324° (NW) 2,700 7.3 -15.4°
Reaches altitude 10° 19:17:45 10° 323° (NW) 1,810 6.4 -15.9°
Maximum altitude 19:21:52 78° 237° (WSW) 562 3.7 -16.9°
Drops below altitude 10° 19:26:00 10° 150° (SSE) 1,820 6.2 -17.8°
Sets 19:28:14 0° 148° (SSE) 2,715 7.1 -18.3°
